Weather Roundup
Issued by NWS

Home | Current Version | Previous Version | Graphics & Text | Print | Product List | Glossary Off
Versions: 1 2 3 4 5 6 7 8 9 10 11 12 13 14 15 16 17 18 19 20 21 22 23 24 25 26 27 28 29 30 31 32 33 34 35 36 37 38 39 40 41 42 43 44 45 46 47 48 49 50

389
NZUS93 KARX 210710
HRRWXR

CURRENT HOURLY OBSERVATIONS ACROSS
MUCH OF THE UPPER MISSISSIPPI VALLEY
NATIONAL WEATHER SERVICE LA CROSSE WI
200 AM CDT MON MAY 21 2018


...SOUTHEAST MINNESOTA...


CITY           SKY/WX    TMP DP  RH WIND       PRES   REMARKS
ROCHESTER      CLOUDY    55  51  86 SE10      30.14F
ROCHESTER/MAYO NOT AVBL
WINONA         NOT AVBL
AUSTIN         NOT AVBL
ALBERT LEA     NOT AVBL
DODGE CENTER   NOT AVBL
PRESTON        NOT AVBL
OWATONNA       NOT AVBL
FARIBAULT      NOT AVBL
$$

...ELSEWHERE IN MINNESOTA...


CITY           SKY/WX    TMP DP  RH WIND       PRES   REMARKS
MINNEAPOLIS    MOCLDY    61  40  45 SE6       30.14S
INTNL FALLS    FAIR      40  38  93 SW3       30.13S
DULUTH         FAIR      44  32  62 CALM      30.17S
RED WING       NOT AVBL
REDWOOD FALLS  LGT RAIN  59  54  83 SE6       30.10F
MANKATO        CLOUDY    59  53  80 SE15      30.12S
WORTHINGTON    CLOUDY    54  53  97 E7        30.10F
FAIRMONT       CLOUDY    57  52  83 E9        30.10F
$$

...SOUTHWEST WISCONSIN...


CITY           SKY/WX    TMP DP  RH WIND       PRES   REMARKS
LA CROSSE      CLOUDY    58  50  75 E6        30.15F
PRAIRIE DU CHI CLOUDY    56  49  77 E6        30.14S
BOSCOBEL       CLOUDY    56  51  84 CALM      30.16S
LONE ROCK      CLOUDY    54  50  86 E5        30.16F
PLATTEVILLE    FAIR      52  47  85 E9        30.15F
FORT MC COY    CLOUDY    49  48  96 CALM      30.18S
CAMP DOUGLAS   FAIR      47  46  94 CALM      30.17S
MAUSTON-NEW LI FAIR      48  47  95 CALM      30.18S
VIROQUA        CLOUDY    52  50  93 E5        30.16F
WIS DELLS      FAIR      48  42  79 CALM      30.17S
$$

...ELSEWHERE IN WISCONSIN...


CITY           SKY/WX    TMP DP  RH WIND       PRES   REMARKS
MILWAUKEE      MOCLDY    45  40  82 N3        30.18F
MADISON        CLOUDY    50  45  83 E3        30.16F
GREEN BAY      FAIR      40  35  83 NE3       30.21F
EAU CLAIRE     FAIR      47  43  86 NE3       30.17S
BLACK RVR FLS  CLOUDY    52  50  93 CALM      30.17S
MEDFORD        FAIR      41  35  77 E3        30.20S
WAUSAU         FAIR      46  36  68 E3        30.19F
WIS RAPIDS     FAIR      44  36  73 CALM      30.20S
MARSHFIELD     FAIR      47  34  60 E5        30.18F
RICE LAKE      FAIR      44  40  85 CALM      30.19S
$$

...NORTHEAST IOWA...


CITY           SKY/WX    TMP DP  RH WIND       PRES   REMARKS
WATERLOO       CLOUDY    56  55  97 E8        30.10F
DUBUQUE        CLOUDY    53  48  83 E12       30.13F
DECORAH        CLOUDY    55  54  94 E9        30.13S
MASON CITY     CLOUDY    55  53  93 E12       30.12F
CHARLES CITY   CLOUDY    55  52  88 E8        30.12F
OELWEIN        CLOUDY    55  54  94 E12       30.12S
$$

...ELSEWHERE IN IOWA...


CITY           SKY/WX    TMP DP  RH WIND       PRES   REMARKS
DES MOINES     LGT RAIN  58  57  97 NE8       30.05F FOG
IOWA CITY      LGT RAIN  58  54  86 E7        30.09F
FORT DODGE     LGT RAIN  55  54  96 E12       30.08F
MARSHALLTOWN   CLOUDY    57  57 100 E10       30.08S
CEDAR RAPIDS   CLOUDY    56  55  97 E13       30.08S
$$

...NORTHERN ILLINOIS...


CITY           SKY/WX    TMP DP  RH WIND       PRES   REMARKS
CHICAGO-OHARE  CLOUDY    49  42  77 NE8       30.15F
CHICAGO-MIDWAY CLOUDY    50  45  83 NE5       30.16S
MOLINE         CLOUDY    57  53  86 E8        30.10F
ROCKFORD       MOCLDY    51  43  74 E8        30.16F
PEORIA         LGT RAIN  59  53  80 E13       30.09F
$$

NOTE: "FAIR" INDICATES FEW OR NO CLOUDS BELOW 12,000 FEET WITH NO
SIGNIFICANT WEATHER AND/OR OBSTRUCTIONS TO VISIBILITY. WIND
SPEEDS ARE IN MILES-PER-HOUR.




USA.gov is the U.S. government's official web portal to all federal, state and local government web resources and services.